Probability
0 0 0 0 0 0 0 0 0 0 0 0 0 0 0 0 0 0 0 0 0 0 0 0 0 0 0 0 0 0 0 0 0 0 0 0 0 0 0 0 0 0 0 0
0 0 0 0 0 0 0 0 0 0 0 0 0 0 0 0 0 0 0 0 0 0 0 0 0 0 0 0 0 0 0 0 0 0 0 0 0 0 0 0 0 0 0 0
0 0 0 0 0 0 0 0 0 0 0 0 0 0 0 0 0 0 0 0 0 0 0 0 0 0 0 0 0 0 0 0 0 0 0 0 0 0 0 0 0 0 0 0
0 0 0 0 0 0 0 0 0 0 0 0 0 0 0 0 0 0 0 0 0 0 0 0 0 0 0 0 0 0 0 0 0 0 0 0 0 0 0 0 0 0 0 0
0 0 0 0 0 0 0 0 0 0 0 0 0 0 0 0 0 0 0 0 0 0 0 0 0 0 0 0 0 0 0 0 0 0 0 0 0 0 0 0 0 0 0 0
0 0 0 0 0 0 0 0 0 0 0 0 0 0 0 0 0 0 0 0 0 0 0 0 0 0 0 0 0 0 0 0 0 0 0 0 0 0 0 0 0 0 0 0
0 0 0 0 0 0 0 0 0 0 0 0 0 0 0 0 0 0 0 0 0 0 0 0 0 0 0 0 0 0 0 0 0 0 0 0 0 0 0 0 0 0 0 0
0 0 0 0 0 0 0 0 0 0 0 0 0 0 0 0 0 0 0 0 0 0 0 0 0 0 0 0 0 0 0 0 0 0 0 0 0 0 0 0 0 0 0 0
0 0 0 0 0 0 0 0 0 0 0 0 0 0 0 0 0 0 0 0 0 0 0 0 0 0 0 0 0 0 0 0 0 0 0 0 0 0 0 0 0 0 0 0
0 0 0 0 0 0 0 0 0 0 0 0 0 0 0 0 0 0 0 0 0 0 0 0 0 0 0 0 0 0 0 0 0 0 0 0 0 0 0 0 0 0 0 0
0 0 0 0 0 0 0 0 0 0 0 0 0 0 0 0 0 0 0 0 0 0 0 0 0 0 0 0 0 0 0 0 0 0 0 0 0 0 0 0 0 0 0 0
0 0 0 0 0 0 0 0 0 0 0 0 0 0 0 0 0 0 0 0 0 0 0 0 0 0 0 0 0 0 0 0 0 0 0 0 0 0 0 0 0 0 0 0
0 0 0 0 0 0 0 0 0 0 0 0 0 0 0 0 0 0 0 0 0 0 0 0 0 0 0 0 0 0 0 0 0 0 0 0 0 0 0 0 0 0 0 0
0 0 0 0 0 0 0 0 0 0 0 0 0 0 0 0 0 0 0 0 0 0 0 0 0 0 0 0 0 0 0 0 0 0 0 0 0 0 0 0 0 0 0 0
0 0 0 0 0 0 0 0 0 0 0 0 0 0 0 0 0 0 0 0 0 0 0 0 0 0 0 0 0 0 0 0 0 0 0 0 0 0 0 0 0 0 0 0
0 0 0 0 0 0 0 0 0 0 0 0 0 0 0 0 0 0 0 0 0 0 0 0 0 0 0 0 0 0 0 0 0 0 0 0 0 0 0 0 0 0 0 0
0 0 0 0 0 0 0 0 0 0 0 0 0 0 0 0 0 0 0 0 0 0 0 0 0 0 0 0 0 0 0 0 0 0 0 0 0 0 0 0 0 0 0 0
0 0 0 0 0 0 0 0 0 0 0 0 0 0 0 0 0 0 0 0 0 0 0 0 0 0 0 0 0 0 0 0 0 0 0 0 0 0 0 0 0 0 0 0
0 0 0 0 0 0 0 0 0 0 0 0 0 0 0 0 0 0 0 0 0 0 0 0 0 0 0 0 0 0 0 0 0 0 0 0 0 0 0 0 0 0 0 0
0 0 0 0 0 0 0 0 0 0 0 0 0 0 0 0 0 0 0 0 0 0 0 0 0 0 0 0 0 0 0 0 0 0 0 0 0 0 0 0 0 0 0 0
0 0 0 0 0 0 0 0 0 0 0 0 0 0 0 0 0 0 0 0 0 0 0 0 0 0 0 0 0 0 0 0 0 0 0 0 0 0 0 0 0 0 0 0
0 0 0 0 0 0 0 0 0 0 0 0 0 0 0 0 0 0 0 0 0 0 0 0 0 0 0 0 0 0 0 0 0 0 0 0 0 0 0 0 0 0 0 0
0 0 0 0 0 0 0 0 0 0 0 0 0 0 0 0 0 0 0 0 0 0 0 0 0 0 0 0 0 0 0 0 0 0 0 0 0 0 0 0 0 0 0 0
0 0 0 0 0 0 0 0 0 0 0 0 0 0 0 0 0 0 0 0 0 0 0 0 0 0 0 0 0 0 0 0 0 0 0 0 0 0 0 0 0 0 0 0
0 0 0 0 0 0 0 0 0 0 0 0 0 0 0 0 0 0 0 0 0 0 0 0 0 0 0 0 0 0 0 0 0 0 0 0 0 0 0 0 0 0 0 0
0 0 0 0 0 0 0 0 0 0 0 0 0 0 0 0 0 0 0 0 0 0 0 0 0 0 0 0 0 0 0 0 0 0 0 0 0 0 0 0 0 0 0 0
0 0 0 0 0 0 0 0 0 0 0 0 0 0 0 0 0 0 0 0 0 0 0 0 0 0 0 0 0 0 0 0 0 0 0 0 0 0 0 0 0 0 0 0
Wind_Speed
11 11 9 10 10 11 13 13 12 13 14 12 6 4 3 2 2 2 2 1 1 2 2 2 1 1 1 1 1 2 2 1 1 1 0 0 0 1 1 1 2 1 1 2
10 10 10 12 13 14 15 14 15 16 17 9 5 3 3 3 3 4 3 2 1 1 2 2 2 1 1 1 2 2 2 2 1 1 0 0 1 1 1 2 2 2 2 2
8 7 6 13 14 16 13 12 12 16 14 5 4 3 3 2 2 3 3 2 2 2 2 2 2 2 2 2 2 2 1 1 1 1 1 0 1 1 2 2 2 2 2 2
5 4 13 10 5 9 12 12 10 9 7 4 3 3 2 1 2 2 2 2 2 2 2 1 1 1 1 2 2 1 1 1 1 1 1 1 1 2 2 2 2 2 3 3
5 8 12 7 4 4 6 9 6 7 6 4 2 1 2 1 1 1 2 2 1 1 1 1 1 1 1 1 1 1 1 1 1 1 1 1 2 2 2 2 2 3 3 3
7 8 10 6 2 1 2 8 5 4 4 3 1 3 4 2 2 2 2 1 1 1 0 1 1 1 2 1 1 2 2 2 1 1 2 2 2 2 2 2 3 3 3 3
11 10 9 3 2 2 5 7 1 3 4 3 3 4 2 2 2 1 2 2 2 1 0 0 1 2 2 1 2 2 1 1 1 1 2 2 2 2 2 2 2 3 3 3
7 9 10 2 3 6 5 0 1 1 1 1 2 1 2 2 1 1 2 2 2 1 1 1 1 2 2 2 1 0 1 1 2 2 2 2 2 2 2 2 2 3 3 3
7 7 2 3 3 2 0 0 1 0 1 1 1 2 2 2 2 1 1 2 2 1 2 1 0 1 2 2 1 0 1 2 2 2 2 2 2 2 2 2 2 3 3 3
4 5 3 2 2 1 0 1 0 1 0 0 2 2 3 2 2 2 2 1 1 1 2 2 1 1 2 1 0 1 2 2 2 2 3 2 2 2 2 3 3 3 3 3
7 5 3 4 3 2 1 0 0 1 1 1 2 3 3 2 2 2 2 1 1 2 3 3 2 2 2 1 1 2 2 3 3 3 3 2 2 3 3 4 4 4 4 4
8 5 4 4 2 2 1 1 1 1 2 2 2 3 3 3 2 2 2 2 2 2 3 3 2 2 2 2 2 2 3 3 2 2 2 2 2 2 5 5 7 8 8 7
4 2 1 1 0 0 1 1 2 2 2 3 2 2 2 3 2 2 2 3 3 4 3 3 3 3 3 2 2 3 3 3 3 3 3 2 2 2 3 4 6 7 8 8
1 0 1 1 1 1 1 1 2 2 2 2 2 2 2 3 2 3 4 4 4 4 4 3 3 4 3 2 3 3 3 4 3 3 3 3 3 3 3 3 4 4 6 8
1 1 1 0 1 2 2 2 2 3 3 3 2 2 3 3 4 5 4 3 3 3 4 3 4 4 3 2 3 3 3 3 3 3 3 3 3 3 3 3 4 4 4 5
1 1 1 0 1 2 2 2 2 4 4 4 3 4 4 4 4 4 4 2 3 4 4 4 5 4 3 3 3 3 3 4 3 3 2 2 3 3 3 3 4 4 4 4
1 1 1 2 2 3 2 2 3 4 4 4 5 4 4 3 3 4 4 3 4 5 4 4 5 3 3 3 3 3 2 3 3 3 3 3 3 3 4 4 4 4 4 5
0 1 1 2 2 3 4 3 3 3 4 5 4 3 3 4 5 5 4 3 3 3 3 4 4 3 2 2 2 2 2 2 2 3 3 3 3 3 3 4 4 5 4 5
1 1 1 1 2 2 3 4 4 4 4 4 3 4 4 5 5 5 4 3 3 4 4 3 4 2 2 3 3 2 2 2 2 2 3 3 3 3 4 4 4 4 4 4
2 2 2 2 2 2 3 3 4 4 4 3 3 4 4 5 4 4 3 4 4 4 4 3 3 3 3 3 3 2 2 3 3 3 3 3 3 4 4 4 4 4 4 4
1 2 2 2 3 3 3 3 3 4 4 3 3 4 5 5 4 3 3 4 4 2 2 3 2 2 2 2 3 2 3 3 3 3 3 3 3 4 4 4 4 4 4 4
1 1 2 2 3 4 3 3 3 3 3 3 4 4 4 5 4 3 3 4 3 3 2 2 2 3 3 3 2 2 3 3 3 3 3 3 3 4 4 4 4 4 3 3
1 1 2 2 3 4 4 3 3 3 3 4 4 4 4 4 3 3 4 2 2 3 3 2 4 5 4 2 2 2 2 2 3 3 3 3 3 3 4 4 4 3 3 3
1 2 2 2 2 2 4 4 3 3 3 4 4 4 4 3 3 2 2 3 3 4 3 3 5 5 3 1 1 2 2 2 2 2 3 3 3 3 3 4 4 3 3 4
2 2 2 2 2 2 3 4 4 3 3 3 3 4 3 2 2 3 2 3 4 4 3 3 4 4 2 1 1 2 2 2 2 3 3 3 3 3 3 3 3 4 4 4
1 2 2 2 2 2 2 2 3 3 3 3 3 3 2 2 2 2 2 2 3 3 3 2 2 2 2 1 1 2 2 3 3 3 3 3 3 4 4 4 4 4 4 4
1 1 1 2 2 2 2 2 3 3 2 3 3 3 2 2 2 2 2 2 2 2 2 2 2 2 2 2 2 2 2 2 3 3 3 3 3 3 4 4 4 4 4 4
Wind_Direction
257 270 269 256 247 232 229 234 242 255 259 265 256 252 242 225 236 241 239 221 194 196 192 185 191 187 166 164 154 148 145 159 179 179 178 16 348 322 318 304 294 292 287 285
260 259 262 264 254 246 243 242 248 259 263 265 266 261 260 245 237 245 242 232 247 222 197 203 206 204 189 179 161 152 167 193 188 159 150 280 307 310 315 307 302 301 292 288
256 262 275 255 235 232 236 236 235 247 256 260 267 262 251 246 247 256 259 251 250 243 237 220 210 207 204 186 151 150 180 190 178 176 201 256 297 308 298 290 292 297 291 285
250 242 244 246 211 217 233 246 241 245 258 256 247 268 272 231 224 261 273 266 260 260 258 236 192 180 159 137 146 167 184 201 201 187 227 273 274 275 286 294 287 283 286 284
224 241 260 258 229 203 224 256 237 230 251 270 274 299 275 264 244 252 271 275 265 266 254 232 175 156 137 137 156 183 207 229 232 214 232 250 255 264 281 289 290 287 286 283
230 240 248 249 222 221 207 258 244 211 226 248 283 261 263 352 10 353 359 358 339 317 331 165 168 137 145 172 191 218 229 235 242 231 228 242 256 272 286 286 285 293 291 286
234 245 255 252 209 134 205 249 237 185 205 216 235 246 273 354 358 3 2 1 4 360 344 229 146 134 167 204 226 241 261 268 262 246 240 246 260 274 278 284 287 287 288 292
220 235 249 177 155 190 220 57 102 162 177 201 244 292 343 351 338 345 347 358 7 2 327 321 131 157 206 239 260 294 260 259 263 263 257 245 245 267 268 261 265 272 281 289
211 225 247 159 186 209 99 97 2 62 128 171 233 268 294 301 299 306 321 339 347 336 313 315 207 187 225 265 290 252 252 257 268 272 264 249 234 243 254 249 252 263 263 273
251 256 257 236 238 261 320 185 57 49 14 218 236 260 276 280 287 295 304 310 331 320 291 285 278 265 258 284 290 230 244 257 260 261 263 246 239 236 240 242 247 255 259 266
255 261 278 261 240 223 230 207 215 316 296 265 247 263 269 269 270 273 286 295 278 253 258 264 271 278 279 249 210 239 250 257 259 255 253 249 243 237 249 241 242 252 251 251
243 238 231 247 210 181 197 245 253 263 281 272 251 261 268 262 267 268 269 277 273 265 261 262 260 266 266 237 204 214 245 251 252 254 256 254 262 287 283 277 279 276 271 272
255 274 232 235 228 10 241 286 291 278 270 279 286 270 269 271 278 276 272 262 254 255 253 250 249 255 259 240 215 215 233 248 255 254 252 256 257 263 288 302 295 289 284 282
350 80 244 266 286 344 353 334 332 316 294 281 287 291 282 277 277 264 257 256 261 264 256 243 245 253 252 235 225 229 238 245 243 247 251 251 253 254 258 269 287 289 288 286
354 24 194 34 21 15 21 9 337 309 305 304 298 281 272 265 265 265 268 268 264 257 250 238 245 257 250 232 230 234 240 244 241 246 250 253 256 258 257 258 266 279 292 291
343 38 69 61 302 320 338 330 300 295 300 297 295 285 274 263 267 275 272 247 244 256 254 247 250 253 243 232 233 240 242 250 253 248 248 252 254 256 257 258 263 265 269 276
146 223 260 262 278 291 292 283 274 282 289 287 286 290 291 285 284 280 274 256 248 256 258 251 254 254 239 227 228 241 246 249 246 249 244 244 249 254 256 257 260 265 266 270
137 258 249 239 255 281 298 302 292 287 283 283 289 292 289 278 272 275 279 286 289 287 275 260 259 252 239 236 234 238 239 242 243 247 254 252 253 256 257 258 260 265 273 275
28 10 352 336 314 296 296 302 300 294 293 288 282 277 274 275 275 279 288 293 285 282 285 285 290 291 265 259 261 241 239 247 255 256 257 261 262 258 256 257 260 262 266 269
15 6 356 343 337 313 298 302 306 306 302 293 285 286 289 289 287 282 275 265 258 265 279 283 276 266 261 263 276 260 251 250 253 258 259 257 259 263 264 264 264 266 267 267
347 339 331 322 319 314 304 300 301 301 306 307 291 285 288 293 293 279 273 279 282 291 291 278 268 264 262 265 262 258 253 254 254 255 257 259 261 265 266 267 270 271 273 275
311 311 309 311 313 312 313 310 300 298 304 305 300 294 293 297 299 285 255 261 286 305 298 282 279 278 282 282 266 262 260 260 262 263 262 264 266 271 274 275 275 278 280 280
286 286 298 303 301 303 313 314 303 298 298 296 293 289 284 284 285 281 287 291 300 299 302 290 295 298 299 289 274 272 271 272 274 274 275 276 277 278 281 282 282 282 283 284
283 296 297 300 305 315 316 315 309 297 292 292 290 283 274 282 288 264 270 291 297 299 302 297 302 312 326 324 305 297 290 287 287 288 289 288 286 285 284 285 287 289 287 285
279 290 299 309 309 301 301 311 313 308 307 307 309 307 290 264 265 294 308 306 308 314 312 311 319 329 336 319 306 301 295 289 289 290 289 288 287 285 284 283 283 285 286 285
292 296 292 283 280 290 299 303 304 307 312 315 319 320 317 312 301 300 310 313 313 313 314 312 319 327 327 323 313 306 301 300 300 296 290 288 287 287 289 291 290 287 285 285
304 302 305 311 307 296 295 295 295 299 303 301 305 311 319 324 325 324 323 321 323 326 327 327 327 324 322 322 317 311 306 302 300 296 293 290 289 287 288 289 289 290 290 289